[[{"header":{"parameterUnit":"m.s-1","parameterCategory":2,"la1":30.2991,"la2":30.254,"lo1":-89.0895,"lo2":-89.0444,"dy":0.0017,"dx":0.0017,"nx":28,"ny":28,"refTime":"2025-09-17T03:00:00:Z","depth":"0","parameterNumber":2,"parameterNumberName":"U-component_of_CURRENTS"},"data":[0,0,0,0,0,0,0,0,0,0,0,0,0,0,0,0,0,0,0,0,0,0,0,0,0,0,0,0,0,0,0,0,0,0,0,0,0,0,0,0,0,0,0,0,0,0,0,0,0,0,0,0,0,0,0,0,0,0,0.1176,0.1177,0,0.1171,0.1171,0.117,0.1094,0.1092,0.1091,0.1089,0.1001,0.1,0.0999,0,0,0,0,0,0,0,0,0,0,0,0,0,0.1119,0.1121,0.1176,0.1177,0.1177,0.1171,0.1171,0.117,0.1094,0.1092,0.109,0.1088,0.1001,0.1,0.0999,0,0,0,0,0,0,0,0,0,0,0,0,0,0.113,0.1121,0.1176,0.114,0.1137,0.1171,0.1171,0.117,0.1095,0.1092,0.109,0.1087,0.1001,0.1,0.0999,0.1044,0,0,0.0996,0.0995,0,0,0,0,0,0,0,0,0.1129,0.1132,0.1145,0.1142,0.1139,0.1133,0.1118,0.1125,0.1095,0.1108,0.1089,0.1086,0.1041,0.1036,0.1039,0.104,0.1036,0.0996,0.0995,0.0994,0.0994,0,0,0,0,0,0,0,0.1129,0.1132,0.1172,0.1146,0.1142,0.1123,0.1122,0.1119,0.1086,0.1107,0.1102,0.1106,0.1038,0.104,0.1036,0.1035,0.0996,0.0995,0.0994,0.0994,0.111,0.1114,0,0,0,0,0,0,0.1138,0.1131,0.1172,0.1172,0.1131,0.1127,0.1125,0.1135,0.1087,0.1079,0.1108,0.1103,0.1043,0.1037,0.1032,0.1121,0.0994,0.0993,0.0993,0.1107,0.1111,0.1115,0,0,0,0,0,0,0.1137,0.1142,0.1172,0.1153,0.1155,0.1131,0.1143,0.1137,0.1146,0.109,0.1078,0.1125,0.1041,0.1034,0.1064,0.1115,0.0993,0.0992,0.1102,0.1108,0.1113,0.1273,0,0,0,0,0,0,0.1135,0.1142,0.1162,0.1154,0.1157,0.1231,0.1146,0.1138,0.1153,0.1146,0.1101,0.1089,0.1038,0.1066,0.1063,0.1111,0.0991,0.1097,0.1105,0.1111,0.1263,0.1284,0.1301,0,0,0,0,0,0.1133,0.1184,0.1163,0.1169,0.1183,0.1234,0.1236,0.1206,0.1157,0.1197,0.116,0.1091,0.1108,0.1069,0.1064,0.1113,0.1094,0.1103,0.1111,0.1255,0.128,0.1301,0,0,0,0,0,0,0.1173,0.1181,0.1158,0.1207,0.1232,0.1223,0.1258,0.1228,0.1232,0.1216,0.1143,0.1133,0.1178,0.1137,0.1096,0.1172,0.1089,0.1097,0.12,0.1223,0.1241,0.1216,0.099,0,0,0,0,0,0.1192,0.1231,0.1234,0.128,0.1296,0.1278,0.1293,0.1277,0.1273,0.127,0.124,0.1213,0.1213,0.1209,0.1206,0.1252,0.1283,0.1282,0.1301,0.1317,0.1297,0.1413,0.1441,0.1143,0.1143,0.1143,0,0,0.1222,0.1231,0.1254,0.1292,0.1301,0.1348,0.1282,0.1328,0.1353,0.1263,0.13,0.1284,0.1243,0.1293,0.1309,0.1261,0.144,0.1328,0.1341,0.1311,0.1425,0.1454,0.1479,0.1149,0.1148,0.1147,0,0,0.1309,0.1312,0.1372,0.1399,0.143,0.1424,0.1444,0.1455,0.1447,0.1492,0.143,0.1445,0.1452,0.1429,0.1415,0.1541,0.1542,0.1553,0.1619,0.1735,0.176,0.1782,0.1951,0.1986,0.1556,0.1556,0.1557,0,0.1341,0.1398,0.1404,0.1465,0.1478,0.1463,0.1515,0.1531,0.1548,0.1544,0.1527,0.1542,0.1508,0.1542,0.1579,0.1578,0.1672,0.1532,0.176,0.1782,0.1801,0.1968,0.2005,0.1565,0.1564,0.1563,0.1562,0,0.1468,0.1503,0.1549,0.1602,0.1632,0.1684,0.169,0.1721,0.1703,0.1698,0.1742,0.1724,0.172,0.1732,0.1684,0.18,0.1838,0.178,0.1699,0.1841,0.2009,0.2045,0.1578,0.1574,0.1572,0.157,0,0,0.1546,0.1617,0.1627,0.1637,0.1692,0.1718,0.178,0.1808,0.1829,0.1863,0.1904,0.1906,0.1889,0.1873,0.1844,0.1923,0.2165,0.1917,0.1919,0.2081,0.2501,0.2568,0.2613,0.2169,0.2174,0.2178,0.2596,0,0.1628,0.172,0.1743,0.1814,0.1846,0.1843,0.189,0.1912,0.1934,0.199,0.1979,0.2022,0.195,0.197,0.2043,0.2117,0.2253,0.206,0.2338,0.2347,0.2385,0.2652,0.2627,0.2998,0.263,0.2636,0.264,0,0.1725,0.1761,0.1832,0.1855,0.187,0.1913,0.1942,0.199,0.2057,0.2079,0.2127,0.2143,0.2241,0.2174,0.2405,0.2303,0.2419,0.2486,0.2504,0.2513,0.2478,0.2779,0.3076,0.2959,0.2694,0.269,0.2686,0,0.1725,0.1807,0.1841,0.1859,0.1912,0.1925,0.195,0.2004,0.2057,0.2153,0.2237,0.2321,0.2419,0.2545,0.2674,0.258,0.2974,0.2858,0.3046,0.3054,0.3051,0.305,0.3247,0.3071,0.307,0.3069,0.3068,0,0.1774,0.1801,0.1836,0.1855,0.1897,0.1919,0.1982,0.2021,0.2126,0.2232,0.2285,0.2415,0.2524,0.2736,0.2809,0.3085,0.3107,0.3129,0.3182,0.3118,0.3117,0.302,0.2905,0.3085,0.3081,0.3078,0.3075,0,0.1784,0.1802,0.1847,0.1888,0.1899,0.1927,0.2015,0.2092,0.217,0.2335,0.2391,0.2578,0.2845,0.2997,0.3256,0.3305,0.3443,0.3597,0.3546,0.3583,0.3572,0.3467,0.3565,0.3452,0.3883,0.3888,0.3891,0,0.182,0.1838,0.1872,0.1919,0.1945,0.199,0.2054,0.2108,0.2212,0.2432,0.2547,0.2835,0.303,0.3468,0.3628,0.389,0.3664,0.4011,0.3775,0.3646,0.3568,0.332,0.3194,0.3891,0.3895,0.3898,0.39,0,0.1914,0.1904,0.1946,0.2005,0.2062,0.2108,0.2195,0.226,0.237,0.2508,0.2721,0.2885,0.3323,0.357,0.3931,0.4055,0.3808,0.4074,0.3953,0.3626,0.3358,0.3248,0.3566,0.3924,0.3922,0.392,0.3919,0.3918,0.2015,0.2042,0.2083,0.213,0.2181,0.2211,0.2233,0.2342,0.2445,0.2627,0.28,0.3044,0.3446,0.3921,0.4026,0.4199,0.4005,0.4114,0.4028,0.3812,0.3587,0.3989,0.4363,0.4363,0.4363,0.4363,0.4363,0,0.2157,0.2165,0.2228,0.2241,0.2271,0.2266,0.2336,0.2353,0.2434,0.267,0.2829,0.3247,0.3586,0.388,0.4203,0.4143,0.3915,0.4057,0.3672,0.3566,0.3998,0.3876,0.4143,0.4143,0.4143,0.4143,0.4143,0.4143,0.2254,0.2308,0.2284,0.2313,0.2313,0.2297,0.2299,0.2327,0.2457,0.2663,0.2888,0.3111,0.3515,0.3953,0.4053,0.4002,0.3623,0.3579,0.3428,0.3701,0.3694,0.3688,0.3547,0.3741,0.3741,0.2883,0.2876,0.2871]},{"header":{"parameterUnit":"m.s-1","parameterCategory":2,"la1":30.2991,"la2":30.254,"lo1":-89.0895,"lo2":-89.0444,"dy":0.0017,"dx":0.0017,"nx":28,"ny":28,"refTime":"2025-09-17T03:00:00:Z","depth":"0","parameterNumber":3,"parameterNumberName":"V-component_of_CURRENTS"},"data":[0,0,0,0,0,0,0,0,0,0,0,0,0,0,0,0,0,0,0,0,0,0,0,0,0,0,0,0,0,0,0,0,0,0,0,0,0,0,0,0,0,0,0,0,0,0,0,0,0,0,0,0,0,0,0,0,0,0,-0.0613,-0.0612,0,-0.0572,-0.0571,-0.0571,-0.0596,-0.0598,-0.0599,-0.0601,-0.0614,-0.0613,-0.0612,0,0,0,0,0,0,0,0,0,0,0,0,0,-0.0659,-0.0658,-0.0613,-0.0612,-0.0612,-0.0572,-0.0571,-0.0571,-0.0596,-0.0598,-0.06,-0.0601,-0.0615,-0.0614,-0.0612,0,0,0,0,0,0,0,0,0,0,0,0,0,-0.0629,-0.0658,-0.0613,-0.0622,-0.0622,-0.0572,-0.0571,-0.057,-0.0596,-0.0598,-0.06,-0.0602,-0.0615,-0.0614,-0.0612,-0.0561,0,0,-0.0608,-0.0607,0,0,0,0,0,0,0,0,-0.063,-0.0627,-0.0621,-0.0621,-0.0622,-0.0593,-0.0593,-0.0571,-0.0595,-0.0603,-0.0601,-0.0603,-0.0612,-0.0611,-0.0595,-0.0562,-0.0562,-0.0608,-0.0607,-0.0606,-0.0606,0,0,0,0,0,0,0,-0.0632,-0.0628,-0.0594,-0.062,-0.0621,-0.061,-0.0608,-0.0588,-0.0596,-0.0603,-0.0605,-0.0604,-0.0613,-0.0596,-0.0596,-0.0562,-0.0608,-0.0607,-0.0606,-0.0605,-0.0541,-0.0541,0,0,0,0,0,0,-0.0642,-0.063,-0.0596,-0.0593,-0.0634,-0.0607,-0.0605,-0.0598,-0.0595,-0.0597,-0.0602,-0.0605,-0.0597,-0.0597,-0.0596,-0.0584,-0.0606,-0.0605,-0.0604,-0.0542,-0.0541,-0.054,0,0,0,0,0,0,-0.0643,-0.0639,-0.0597,-0.0613,-0.0607,-0.0605,-0.0597,-0.0597,-0.0585,-0.0594,-0.0597,-0.0592,-0.0599,-0.0598,-0.058,-0.0584,-0.0604,-0.0603,-0.0543,-0.0542,-0.0541,-0.053,0,0,0,0,0,0,-0.0644,-0.0639,-0.0629,-0.0613,-0.0607,-0.0562,-0.0595,-0.0594,-0.0581,-0.0585,-0.0585,-0.0589,-0.0601,-0.0581,-0.0578,-0.0582,-0.0602,-0.0544,-0.0543,-0.0541,-0.0531,-0.0528,-0.0526,0,0,0,0,0,-0.0646,-0.0616,-0.0628,-0.0624,-0.0595,-0.0561,-0.0555,-0.056,-0.0579,-0.0559,-0.0568,-0.0589,-0.057,-0.0579,-0.0575,-0.0579,-0.0545,-0.0543,-0.0541,-0.0532,-0.0529,-0.0526,0,0,0,0,0,0,-0.0619,-0.0615,-0.0629,-0.0597,-0.0583,-0.0566,-0.0544,-0.0551,-0.0538,-0.0548,-0.0564,-0.0566,-0.0556,-0.0557,-0.0566,-0.0555,-0.0566,-0.0563,-0.056,-0.0557,-0.0554,-0.0544,-0.0601,0,0,0,0,0,-0.0612,-0.0595,-0.0589,-0.0562,-0.0556,-0.055,-0.0536,-0.0541,-0.0532,-0.0529,-0.0531,-0.0537,-0.054,-0.0541,-0.0535,-0.0515,-0.0482,-0.0518,-0.0516,-0.0514,-0.0502,-0.0457,-0.0449,-0.0534,-0.0534,-0.0534,0,0,-0.0593,-0.0589,-0.0578,-0.0556,-0.0547,-0.0534,-0.0546,-0.052,-0.0517,-0.0531,-0.0517,-0.052,-0.0531,-0.0521,-0.0517,-0.0526,-0.0466,-0.0511,-0.051,-0.0498,-0.0454,-0.0445,-0.0438,-0.0533,-0.0533,-0.0533,0,0,-0.0553,-0.0545,-0.0527,-0.0517,-0.0506,-0.0504,-0.0498,-0.0483,-0.0483,-0.0463,-0.0487,-0.0486,-0.0475,-0.049,-0.0498,-0.0469,-0.0451,-0.0474,-0.0455,-0.0412,-0.0405,-0.0398,-0.0319,-0.0306,-0.0477,-0.0477,-0.0477,0,-0.0529,-0.0518,-0.0511,-0.0498,-0.049,-0.0495,-0.0479,-0.0472,-0.0455,-0.0439,-0.0461,-0.0437,-0.0464,-0.0452,-0.0466,-0.0465,-0.0419,-0.0472,-0.0409,-0.0401,-0.0394,-0.0316,-0.0301,-0.0476,-0.0476,-0.0476,-0.0476,0,-0.0494,-0.0485,-0.0467,-0.0466,-0.0449,-0.0429,-0.0433,-0.0413,-0.0419,-0.0411,-0.0383,-0.04,-0.0379,-0.0408,-0.044,-0.041,-0.0383,-0.0408,-0.0418,-0.0385,-0.0304,-0.0288,-0.0475,-0.0475,-0.0475,-0.0476,0,0,-0.0439,-0.0444,-0.044,-0.0431,-0.0435,-0.0404,-0.0402,-0.0377,-0.0326,-0.0344,-0.0272,-0.0337,-0.0322,-0.0329,-0.0356,-0.0352,-0.0288,-0.0367,-0.0365,-0.0289,-0.015,-0.0132,-0.0113,-0.0299,-0.0297,-0.0295,-0.0103,0,-0.0416,-0.0392,-0.0405,-0.0373,-0.0357,-0.0362,-0.0333,-0.0312,-0.0283,-0.0204,-0.0239,-0.0174,-0.0298,-0.0253,-0.0284,-0.0264,-0.025,-0.0335,-0.0192,-0.0187,-0.0177,-0.0097,-0.0102,0.0068,-0.0088,-0.0085,-0.0083,0,-0.0384,-0.0372,-0.0345,-0.0309,-0.0297,-0.0273,-0.0197,-0.0169,-0.0095,-0.0058,-0.003,-0.0012,-0.0005,-0.0095,-0.0082,-0.0123,-0.0141,-0.015,-0.0142,-0.012,-0.0141,0.0005,0.0102,-0.0162,-0.0059,-0.0061,-0.0063,0,-0.0337,-0.0323,-0.0297,-0.0291,-0.0253,-0.022,-0.0186,-0.0115,-0.0019,0.0074,0.0195,0.0169,0.0258,0.0181,0.0127,0.0048,0.018,0.008,0.0081,0.0084,0.0111,0.0112,-0.0032,0.01,0.01,0.0099,0.0098,0,-0.0299,-0.0264,-0.0264,-0.0237,-0.0139,-0.0151,-0.0009,0.0034,0.0167,0.0344,0.0299,0.0459,0.0334,0.0387,0.025,0.0247,0.0284,0.0121,0.0139,0.0118,0.0117,-0.0088,-0.0244,0.0106,0.0105,0.0103,0.0102,0,-0.0205,-0.0239,-0.017,-0.0134,-0.0106,-0.0016,0.0137,0.0273,0.0352,0.06,0.066,0.0748,0.0807,0.0693,0.0651,0.0484,0.031,0.0413,0.0413,0.0424,0.011,-0.0042,-0.0074,-0.0189,0.0439,0.044,0.0442,0,-0.0139,-0.0108,-0.0049,0.0034,0.007,0.0188,0.0313,0.0382,0.055,0.0791,0.0955,0.1083,0.1197,0.114,0.0892,0.0728,0.0452,0.0591,0.0391,0.0123,-0.0034,-0.0138,-0.0243,0.0454,0.0456,0.0457,0.0458,0,0.0046,0.0054,0.0125,0.0255,0.0376,0.0519,0.0684,0.0828,0.0963,0.1141,0.1393,0.1492,0.1466,0.1326,0.1097,0.0913,0.0385,0.0607,0.0329,-0.0027,-0.0144,-0.0254,0.0312,0.0468,0.0467,0.0466,0.0465,0.0465,0.0242,0.0323,0.0399,0.0528,0.0666,0.0843,0.0958,0.1142,0.1365,0.1615,0.1696,0.1864,0.1649,0.1333,0.1039,0.0496,0.0473,0.0273,0.0127,0.0059,-0.0123,0.0478,0.0632,0.0632,0.0631,0.0631,0.0631,0,0.0478,0.0532,0.0679,0.0808,0.0962,0.0977,0.1212,0.1314,0.1537,0.1807,0.1967,0.2033,0.1643,0.1215,0.0552,0.0096,-0.0129,-0.0175,-0.0381,-0.0458,0.0092,0.0011,0.0037,0.0038,0.0038,0.0038,0.0038,0.0039,0.0614,0.0753,0.0771,0.1025,0.1122,0.1288,0.139,0.155,0.1737,0.2034,0.2209,0.2343,0.2097,0.0767,-0.021,-0.0454,-0.0853,-0.0869,-0.1067,-0.0789,-0.0762,-0.0736,-0.0853,-0.1008,-0.1009,-0.1577,-0.1584,-0.1588]}],[{"header":{"parameterUnit":"m.s-1","parameterCategory":2,"la1":30.2991,"la2":30.254,"lo1":-89.0895,"lo2":-89.0444,"dy":0.0017,"dx":0.0017,"nx":28,"ny":28,"refTime":"2025-09-17T03:00:00:Z","depth":"2","parameterNumber":2,"parameterNumberName":"U-component_of_CURRENTS"},"data":[0,0,0,0,0,0,0,0,0,0,0,0,0,0,0,0,0,0,0,0,0,0,0,0,0,0,0,0,0,0,0,0,0,0,0,0,0,0,0,0,0,0,0,0,0,0,0,0,0,0,0,0,0,0,0,0,0,0,0.1422,0.1422,0,0.146,0.146,0.1461,0.1461,0.1461,0.146,0.146,0.1512,0.1514,0.1515,0,0,0,0,0,0,0,0,0,0,0,0,0,0.1352,0.1353,0.1422,0.1422,0.1423,0.146,0.146,0.1461,0.1461,0.1461,0.146,0.146,0.1511,0.1513,0.1516,0,0,0,0,0,0,0,0,0,0,0,0,0,0.1385,0.1353,0.1422,0.1428,0.1429,0.146,0.1461,0.1461,0.1461,0.1461,0.146,0.1459,0.1511,0.1513,0.1516,0.1545,0,0,0.1524,0.1525,0,0,0,0,0,0,0,0,0.1383,0.1387,0.1427,0.1428,0.1429,0.1456,0.1455,0.149,0.1461,0.1448,0.146,0.1459,0.1496,0.1499,0.1507,0.1547,0.155,0.1524,0.1526,0.1527,0.1528,0,0,0,0,0,0,0,0.138,0.1385,0.1436,0.1427,0.1429,0.143,0.1434,0.1462,0.1474,0.1449,0.145,0.1455,0.1496,0.1504,0.1508,0.155,0.1524,0.1527,0.1528,0.1529,0.1635,0.1636,0,0,0,0,0,0,0.1378,0.1383,0.1435,0.1437,0.1405,0.1432,0.1436,0.1447,0.1474,0.1477,0.1456,0.1455,0.15,0.1505,0.151,0.1559,0.1527,0.153,0.1531,0.1634,0.1635,0.1637,0,0,0,0,0,0,0.1377,0.1383,0.1433,0.1411,0.1418,0.1434,0.1446,0.1448,0.1457,0.1479,0.1482,0.1463,0.1499,0.1506,0.1539,0.156,0.1531,0.1533,0.1632,0.1634,0.1636,0.1648,0,0,0,0,0,0,0.1375,0.1382,0.139,0.1412,0.1419,0.1463,0.1447,0.1449,0.1462,0.1462,0.1486,0.149,0.1499,0.1535,0.1542,0.1563,0.1535,0.1631,0.1633,0.1635,0.1646,0.165,0.1653,0,0,0,0,0,0.1372,0.1388,0.139,0.1397,0.143,0.1464,0.1468,0.1476,0.1463,0.1479,0.1489,0.149,0.1554,0.1538,0.1546,0.1568,0.163,0.1633,0.1635,0.1644,0.1649,0.1653,0,0,0,0,0,0,0.1359,0.139,0.1393,0.1417,0.1443,0.1464,0.148,0.1479,0.1499,0.1496,0.1505,0.1511,0.1546,0.156,0.1541,0.1607,0.1593,0.1597,0.1597,0.1602,0.1606,0.1607,0.1537,0,0,0,0,0,0.1361,0.1383,0.1411,0.1431,0.1445,0.1461,0.1474,0.1481,0.15,0.1507,0.152,0.154,0.1565,0.1583,0.1606,0.1645,0.1684,0.1666,0.167,0.1673,0.1681,0.1738,0.1748,0.1646,0.1646,0.1646,0,0,0.1359,0.1381,0.1392,0.143,0.1449,0.1479,0.1468,0.1495,0.1515,0.1512,0.1542,0.1552,0.1577,0.1616,0.1634,0.1629,0.1732,0.1676,0.1678,0.1685,0.1742,0.1752,0.1761,0.1647,0.1647,0.1647,0,0,0.1376,0.1391,0.1419,0.1444,0.1479,0.1493,0.1502,0.1528,0.1537,0.1571,0.1568,0.1589,0.1633,0.165,0.1665,0.1706,0.1744,0.1717,0.1743,0.1799,0.1807,0.1815,0.1915,0.1932,0.1724,0.1724,0.1724,0,0.1373,0.1411,0.1432,0.1467,0.1487,0.1501,0.1532,0.1551,0.158,0.1594,0.1586,0.1641,0.1651,0.1698,0.1706,0.1714,0.1768,0.172,0.1803,0.1812,0.182,0.192,0.1938,0.1724,0.1724,0.1724,0.1724,0,0.1415,0.1444,0.1464,0.1512,0.1536,0.1567,0.1595,0.1617,0.1623,0.164,0.1682,0.1696,0.1734,0.1735,0.1732,0.1794,0.1824,0.1796,0.1789,0.1831,0.1934,0.1953,0.1726,0.1725,0.1725,0.1725,0,0,0.1416,0.1479,0.1487,0.1509,0.156,0.1583,0.1624,0.1665,0.17,0.1717,0.1768,0.1783,0.179,0.1808,0.1809,0.1843,0.1946,0.1845,0.1848,0.1941,0.2116,0.2048,0.2063,0.1932,0.1934,0.1936,0.2179,0,0.1444,0.1502,0.1531,0.1581,0.1611,0.1637,0.1675,0.1711,0.1749,0.1805,0.1816,0.1869,0.1822,0.1853,0.1877,0.1937,0.1991,0.1886,0.2065,0.2072,0.2001,0.2079,0.1889,0.2079,0.2197,0.2201,0.2203,0,0.148,0.1512,0.1561,0.1612,0.1629,0.166,0.1724,0.1764,0.184,0.1875,0.1922,0.1951,0.2021,0.1965,0.2093,0.2034,0.2078,0.2108,0.2118,0.2059,0.2036,0.205,0.2109,0.2235,0.2232,0.223,0.2228,0,0.1469,0.1533,0.1566,0.1586,0.1648,0.1672,0.1708,0.178,0.1843,0.1936,0.2011,0.2071,0.2153,0.2191,0.2257,0.2195,0.2407,0.2334,0.2319,0.2319,0.2192,0.2174,0.2418,0.2417,0.2417,0.2416,0.2416,0,0.1488,0.1515,0.1562,0.1582,0.1632,0.167,0.1746,0.1795,0.1904,0.1999,0.2052,0.2157,0.2211,0.233,0.2338,0.2417,0.2488,0.2353,0.2372,0.2194,0.2174,0.2317,0.2302,0.2425,0.2423,0.2422,0.242,0,0.1482,0.151,0.1553,0.161,0.1632,0.1668,0.178,0.1851,0.1945,0.2085,0.2131,0.2287,0.2433,0.2498,0.2616,0.2551,0.2608,0.2611,0.2421,0.2409,0.2468,0.2451,0.2625,0.2624,0.2624,0.2624,0.2623,0,0.1492,0.1511,0.1571,0.1609,0.164,0.1704,0.1768,0.1862,0.1952,0.2158,0.2237,0.2431,0.2519,0.269,0.2652,0.2693,0.2703,0.2512,0.231,0.2487,0.2489,0.2472,0.2456,0.219,0.2186,0.2183,0.2181,0,0.1516,0.153,0.1569,0.1628,0.1689,0.1757,0.1848,0.1918,0.2046,0.2168,0.2339,0.2423,0.2575,0.2525,0.2565,0.2534,0.2474,0.2445,0.2725,0.2131,0.2085,0.2083,0.2081,0.2153,0.2156,0.2158,0.2159,0.216,0.1537,0.1555,0.1594,0.1643,0.172,0.1774,0.1797,0.1912,0.202,0.211,0.2268,0.2302,0.2349,0.2287,0.2264,0.2239,0.2361,0.2218,0.2225,0.2236,0.2106,0.2057,0.2101,0.2103,0.2105,0.2107,0.2109,0,0.152,0.1541,0.1608,0.1641,0.1687,0.1739,0.1827,0.1821,0.1893,0.1984,0.2045,0.1893,0.1888,0.1965,0.188,0.1862,0.1805,0.1792,0.1705,0.1736,0.1762,0.1603,0.1468,0.1466,0.1464,0.1462,0,0,0.1508,0.152,0.1529,0.1564,0.1612,0.1617,0.1633,0.1656,0.1694,0.1645,0.163,0.1711,0.1865,0.1616,0.1611,0.1538,0.161,0.1475,0.1993,0.1921,0.1944,0.2022,0.1814,0,0,0,0,0]},{"header":{"parameterUnit":"m.s-1","parameterCategory":2,"la1":30.2991,"la2":30.254,"lo1":-89.0895,"lo2":-89.0444,"dy":0.0017,"dx":0.0017,"nx":28,"ny":28,"refTime":"2025-09-17T03:00:00:Z","depth":"2","parameterNumber":3,"parameterNumberName":"V-component_of_CURRENTS"},"data":[0,0,0,0,0,0,0,0,0,0,0,0,0,0,0,0,0,0,0,0,0,0,0,0,0,0,0,0,0,0,0,0,0,0,0,0,0,0,0,0,0,0,0,0,0,0,0,0,0,0,0,0,0,0,0,0,0,0,-0.0158,-0.0158,0,-0.0166,-0.0166,-0.0166,-0.0169,-0.0169,-0.0169,-0.0169,-0.0152,-0.0151,-0.0151,0,0,0,0,0,0,0,0,0,0,0,0,0,-0.0156,-0.0156,-0.0158,-0.0158,-0.0158,-0.0166,-0.0166,-0.0166,-0.0169,-0.0169,-0.0169,-0.0169,-0.0152,-0.0151,-0.0151,0,0,0,0,0,0,0,0,0,0,0,0,0,-0.016,-0.0156,-0.0158,-0.0161,-0.0161,-0.0166,-0.0166,-0.0166,-0.0169,-0.0169,-0.0169,-0.0169,-0.0152,-0.0151,-0.0151,-0.0146,0,0,-0.0148,-0.0148,0,0,0,0,0,0,0,0,-0.0159,-0.016,-0.016,-0.016,-0.0161,-0.0167,-0.0159,-0.0158,-0.0169,-0.0166,-0.0169,-0.0169,-0.0154,-0.0154,-0.0155,-0.0145,-0.0145,-0.0148,-0.0148,-0.0148,-0.0147,0,0,0,0,0,0,0,-0.0159,-0.0159,-0.0161,-0.016,-0.0161,-0.0165,-0.0166,-0.0159,-0.0159,-0.0166,-0.0166,-0.0168,-0.0154,-0.0156,-0.0155,-0.0144,-0.0148,-0.0148,-0.0147,-0.0147,-0.017,-0.0171,0,0,0,0,0,0,-0.0158,-0.0159,-0.016,-0.0161,-0.016,-0.0165,-0.0166,-0.0165,-0.016,-0.016,-0.0168,-0.0168,-0.0157,-0.0155,-0.0154,-0.0164,-0.0148,-0.0147,-0.0147,-0.0169,-0.017,-0.0171,0,0,0,0,0,0,-0.0158,-0.0158,-0.016,-0.0161,-0.0161,-0.0165,-0.0164,-0.0165,-0.017,-0.0161,-0.0161,-0.0172,-0.0157,-0.0155,-0.0159,-0.0163,-0.0147,-0.0146,-0.0167,-0.0169,-0.017,-0.0175,0,0,0,0,0,0,-0.0158,-0.0158,-0.0158,-0.016,-0.0161,-0.0159,-0.0164,-0.0165,-0.017,-0.0171,-0.0165,-0.0163,-0.0157,-0.0161,-0.0159,-0.0162,-0.0145,-0.0166,-0.0168,-0.017,-0.0173,-0.0176,-0.0179,0,0,0,0,0,-0.0158,-0.0146,-0.0158,-0.0158,-0.0161,-0.0159,-0.0159,-0.0163,-0.017,-0.0168,-0.0176,-0.0164,-0.0172,-0.0161,-0.0158,-0.0161,-0.0165,-0.0168,-0.017,-0.0172,-0.0176,-0.0179,0,0,0,0,0,0,-0.0135,-0.0146,-0.0159,-0.015,-0.0157,-0.0159,-0.0156,-0.0166,-0.0171,-0.0174,-0.0171,-0.017,-0.0176,-0.0174,-0.0162,-0.0177,-0.0169,-0.017,-0.0171,-0.0174,-0.0177,-0.0177,-0.0145,0,0,0,0,0,-0.0135,-0.0136,-0.0147,-0.0141,-0.0145,-0.0156,-0.0158,-0.0163,-0.0167,-0.017,-0.0171,-0.0177,-0.0183,-0.0183,-0.0185,-0.0188,-0.0199,-0.0192,-0.0195,-0.0197,-0.0198,-0.0227,-0.0232,-0.0179,-0.0179,-0.0179,0,0,-0.0124,-0.0131,-0.0131,-0.0138,-0.0145,-0.0144,-0.0156,-0.0157,-0.0161,-0.0166,-0.0171,-0.0182,-0.0188,-0.0195,-0.0198,-0.0192,-0.0221,-0.02,-0.0202,-0.0202,-0.023,-0.0235,-0.0239,-0.018,-0.018,-0.018,0,0,-0.0098,-0.0112,-0.0105,-0.0113,-0.0126,-0.0135,-0.0137,-0.0148,-0.0158,-0.0168,-0.0179,-0.0198,-0.0199,-0.0209,-0.0214,-0.0234,-0.0234,-0.0236,-0.0245,-0.0272,-0.0276,-0.028,-0.0306,-0.0312,-0.0236,-0.0236,-0.0236,0,-0.0086,-0.0082,-0.0102,-0.0098,-0.0103,-0.0131,-0.0125,-0.0138,-0.0151,-0.0163,-0.0169,-0.0201,-0.0206,-0.0223,-0.0238,-0.0238,-0.0255,-0.0227,-0.0275,-0.0279,-0.0282,-0.0308,-0.0315,-0.0237,-0.0237,-0.0237,-0.0237,0,-0.0057,-0.0058,-0.0053,-0.0065,-0.0073,-0.0071,-0.0096,-0.011,-0.0134,-0.0151,-0.0179,-0.0201,-0.0219,-0.0231,-0.0241,-0.0273,-0.0277,-0.0273,-0.0262,-0.0288,-0.0313,-0.032,-0.0238,-0.0237,-0.0237,-0.0237,0,0,-0.0021,-0.003,-0.0032,-0.0035,-0.0058,-0.0059,-0.0075,-0.0098,-0.0102,-0.0143,-0.0151,-0.0199,-0.0221,-0.0231,-0.025,-0.0283,-0.0332,-0.0294,-0.0295,-0.0312,-0.0396,-0.0407,-0.0415,-0.0337,-0.0338,-0.0339,-0.0405,0,0.0005,0.002,0.0003,0.0008,0.0012,-0.0024,-0.0032,-0.0061,-0.0085,-0.0098,-0.0154,-0.0164,-0.0217,-0.022,-0.027,-0.0298,-0.035,-0.0315,-0.0376,-0.0378,-0.0377,-0.0423,-0.0386,-0.0443,-0.0411,-0.0412,-0.0413,0,0.0032,0.0038,0.005,0.004,0.0038,0.0032,0.0009,0.0001,-0.0035,-0.0051,-0.0094,-0.0123,-0.0179,-0.0212,-0.0315,-0.029,-0.0357,-0.0394,-0.0397,-0.0409,-0.0401,-0.0412,-0.0456,-0.0425,-0.0424,-0.0423,-0.0422,0,0.0059,0.0065,0.0073,0.007,0.0058,0.0048,0.0038,0.001,0.0026,-0.0016,0.0003,-0.0088,-0.0089,-0.0205,-0.03,-0.0308,-0.0404,-0.0415,-0.0499,-0.0499,-0.0481,-0.0479,-0.0512,-0.0512,-0.0512,-0.0512,-0.0511,0,0.0088,0.009,0.0086,0.0089,0.0105,0.0078,0.0096,0.0074,0.0081,0.0119,0.0033,0.0059,-0.0086,-0.0153,-0.0281,-0.0406,-0.0396,-0.0514,-0.0523,-0.0483,-0.048,-0.047,-0.0464,-0.0514,-0.0514,-0.0513,-0.0513,0,0.0103,0.0104,0.0114,0.0111,0.0116,0.0123,0.0156,0.0187,0.0174,0.0228,0.0227,0.0183,0.009,-0.0067,-0.0219,-0.0345,-0.0481,-0.0534,-0.048,-0.0483,-0.0569,-0.0563,-0.0642,-0.0643,-0.0644,-0.0644,-0.0645,0,0.0104,0.0111,0.0135,0.0162,0.0159,0.0182,0.022,0.0229,0.0281,0.0314,0.0359,0.0295,0.026,0.0022,-0.0206,-0.0443,-0.0478,-0.0567,-0.059,-0.0585,-0.0585,-0.0578,-0.0571,-0.0569,-0.0569,-0.0569,-0.0569,0,0.0103,0.0111,0.0134,0.0197,0.0239,0.0302,0.0354,0.0421,0.0452,0.0511,0.0576,0.0549,0.0325,0.0112,-0.0216,-0.0375,-0.0531,-0.0574,-0.0578,-0.054,-0.0521,-0.052,-0.0515,-0.0569,-0.0569,-0.0569,-0.0569,-0.0569,0.01,0.0127,0.0171,0.0239,0.0307,0.0411,0.0497,0.0579,0.0687,0.077,0.0725,0.0696,0.0423,0.0024,-0.0234,-0.0502,-0.0523,-0.0626,-0.0624,-0.0622,-0.06,-0.0584,-0.0639,-0.064,-0.064,-0.064,-0.0641,0,0.0112,0.0157,0.0215,0.0312,0.0421,0.0449,0.0593,0.0695,0.0857,0.0878,0.091,0.066,0.04,0.0104,-0.0289,-0.0547,-0.0555,-0.0617,-0.0573,-0.0573,-0.0573,-0.0546,-0.0572,-0.0572,-0.0573,-0.0573,0,0,0.0116,0.0189,0.0238,0.0404,0.0493,0.0664,0.0776,0.0909,0.0975,0.1003,0.0972,0.0845,0.0486,0.0217,-0.013,-0.0337,-0.0388,-0.0375,-0.041,-0.0317,-0.0313,-0.0567,-0.0525,0,0,0,0,0]}],[{"header":{"parameterUnit":"m.s-1","parameterCategory":2,"la1":30.2991,"la2":30.254,"lo1":-89.0895,"lo2":-89.0444,"dy":0.0017,"dx":0.0017,"nx":28,"ny":28,"refTime":"2025-09-17T03:00:00:Z","depth":"4","parameterNumber":2,"parameterNumberName":"U-component_of_CURRENTS"},"data":[0,0,0,0,0,0,0,0,0,0,0,0,0,0,0,0,0,0,0,0,0,0,0,0,0,0,0,0,0,0,0,0,0,0,0,0,0,0,0,0,0,0,0,0,0,0,0,0,0,0,0,0,0,0,0,0,0,0,0.0708,0.0709,0,0.0776,0.0776,0.0777,0.0819,0.082,0.082,0.0821,0.0878,0.0879,0.088,0,0,0,0,0,0,0,0,0,0,0,0,0,0.0618,0.0619,0.0708,0.0709,0.071,0.0776,0.0776,0.0777,0.0819,0.082,0.0821,0.0821,0.0878,0.0879,0.088,0,0,0,0,0,0,0,0,0,0,0,0,0,0.0665,0.0619,0.0708,0.0741,0.0745,0.0775,0.0776,0.0777,0.0819,0.082,0.0821,0.0821,0.0877,0.0879,0.0881,0.0875,0,0,0.0885,0.0886,0,0,0,0,0,0,0,0,0.0663,0.0668,0.0735,0.0739,0.0744,0.0792,0.0766,0.081,0.0819,0.0788,0.0821,0.0822,0.085,0.0854,0.0861,0.0878,0.088,0.0886,0.0886,0.0887,0.0888,0,0,0,0,0,0,0,0.0659,0.0666,0.0732,0.0737,0.0742,0.0754,0.0761,0.0774,0.0811,0.0791,0.0795,0.0807,0.0852,0.0859,0.0863,0.0881,0.0885,0.0887,0.0888,0.0888,0.0973,0.0975,0,0,0,0,0,0,0.0656,0.0663,0.073,0.0734,0.0708,0.0755,0.0763,0.0774,0.0812,0.0819,0.0806,0.0809,0.0856,0.0861,0.0865,0.0929,0.0887,0.0889,0.089,0.0972,0.0974,0.0975,0,0,0,0,0,0,0.0654,0.0661,0.0727,0.0702,0.0712,0.0756,0.0767,0.0775,0.0806,0.0824,0.0831,0.0833,0.0857,0.0862,0.0901,0.0929,0.0889,0.0891,0.0971,0.0973,0.0974,0.1014,0,0,0,0,0,0,0.0651,0.066,0.0675,0.0702,0.0713,0.0758,0.0767,0.0775,0.0812,0.0817,0.0849,0.0854,0.0858,0.0899,0.0903,0.0931,0.0892,0.0969,0.0971,0.0974,0.1011,0.1017,0.1022,0,0,0,0,0,0.0647,0.0662,0.0675,0.0684,0.0729,0.0759,0.0766,0.0798,0.0813,0.0829,0.0856,0.0854,0.0918,0.0901,0.0906,0.0934,0.0968,0.0971,0.0974,0.1008,0.1016,0.1022,0,0,0,0,0,0,0.0633,0.0669,0.0683,0.0709,0.0739,0.0768,0.079,0.081,0.0843,0.0857,0.0869,0.0875,0.0919,0.0922,0.0904,0.0967,0.0943,0.0947,0.0968,0.0975,0.0981,0.0992,0.0893,0,0,0,0,0,0.0636,0.0656,0.069,0.0713,0.073,0.0763,0.0784,0.0808,0.0838,0.0855,0.0878,0.0905,0.093,0.0949,0.0968,0.1001,0.1,0.1023,0.1029,0.1033,0.1047,0.1067,0.1076,0.0985,0.0985,0.0985,0,0,0.0636,0.066,0.0672,0.0712,0.0738,0.0766,0.0777,0.0817,0.085,0.0854,0.0908,0.0925,0.0943,0.0983,0.1003,0.0992,0.1058,0.1037,0.1041,0.1052,0.1071,0.108,0.1088,0.0987,0.0986,0.0986,0,0,0.0643,0.067,0.0689,0.0717,0.0764,0.0784,0.08,0.0843,0.0874,0.0921,0.0936,0.0974,0.101,0.1032,0.1046,0.1094,0.1085,0.1101,0.1142,0.1162,0.1169,0.1176,0.1178,0.1185,0.1106,0.1106,0.1106,0,0.0646,0.0674,0.07,0.0729,0.0757,0.0793,0.0824,0.0857,0.0911,0.0941,0.0946,0.1022,0.1034,0.1088,0.1109,0.1107,0.1111,0.1113,0.1169,0.1175,0.1181,0.1182,0.1189,0.1108,0.1108,0.1108,0.1108,0,0.0665,0.0696,0.0711,0.0757,0.0789,0.0823,0.0871,0.0913,0.0952,0.0985,0.1055,0.1081,0.1127,0.1137,0.114,0.1197,0.1183,0.1169,0.1149,0.1193,0.1191,0.1197,0.1112,0.1111,0.111,0.111,0,0,0.0649,0.0711,0.072,0.0748,0.081,0.0838,0.0897,0.0957,0.1005,0.106,0.1117,0.1172,0.1195,0.1213,0.1226,0.125,0.1291,0.1236,0.1236,0.1234,0.1329,0.128,0.1281,0.1289,0.1291,0.1292,0.1306,0,0.0659,0.0705,0.0741,0.0796,0.0824,0.088,0.0932,0.0996,0.1049,0.1111,0.116,0.1225,0.1222,0.1261,0.1281,0.1298,0.1312,0.1288,0.1291,0.1291,0.1239,0.1289,0.1297,0.1311,0.1312,0.1313,0.1314,0,0.0665,0.0698,0.0746,0.082,0.084,0.088,0.0971,0.1032,0.1122,0.1164,0.1233,0.1277,0.1348,0.1328,0.1378,0.1366,0.1354,0.1353,0.1353,0.1301,0.1255,0.1261,0.1325,0.1324,0.1323,0.1323,0.1322,0,0.0631,0.0702,0.074,0.0765,0.0852,0.0894,0.0954,0.1048,0.1113,0.1216,0.1265,0.1341,0.1387,0.141,0.1434,0.1413,0.1467,0.1427,0.1366,0.1361,0.1381,0.1373,0.1446,0.1446,0.1446,0.1446,0.1446,0,0.0619,0.065,0.0729,0.075,0.0814,0.0888,0.0974,0.1039,0.1143,0.1214,0.13,0.1358,0.1412,0.1458,0.1457,0.1445,0.1487,0.1388,0.1371,0.1395,0.139,0.1384,0.1377,0.1446,0.1446,0.1446,0.1446,0,0.0568,0.0621,0.0669,0.0761,0.0798,0.0848,0.0983,0.1039,0.1147,0.124,0.1287,0.1382,0.1446,0.149,0.1519,0.1466,0.1471,0.1447,0.1482,0.1465,0.1337,0.1332,0.1371,0.1369,0.1368,0.1367,0.1366,0,0.0541,0.0557,0.0661,0.0698,0.0741,0.0835,0.0897,0.1025,0.1081,0.1249,0.1271,0.1386,0.144,0.1439,0.1482,0.1489,0.1462,0.144,0.1379,0.1355,0.1335,0.1331,0.1327,0.1365,0.1364,0.1364,0.1364,0,0.0482,0.0524,0.0568,0.0644,0.0709,0.0784,0.0877,0.0918,0.1068,0.1171,0.125,0.1314,0.1363,0.1396,0.1417,0.1415,0.1451,0.1427,0.1427,0.137,0.1347,0.1328,0.1326,0.136,0.136,0.136,0.1361,0,0.0439,0.0451,0.0517,0.0583,0.0661,0.0711,0.0777,0.0855,0.0941,0.1118,0.1142,0.1262,0.135,0.1359,0.1389,0.139,0.1348,0.1281,0.1289,0.1294,0.1266,0.1226,0.12,0,0,0,0,0,0.0399,0.0409,0.0453,0.0525,0.0598,0.0646,0.0752,0.0818,0.0962,0.0989,0.107,0.1133,0.1201,0.1258,0.124,0.1334,0.1338,0.1306,0.126,0.1337,0.1342,0.1318,0,0,0,0,0,0,0.0367,0.0402,0.0427,0.0468,0.0503,0.0574,0.0639,0.0729,0.0756,0.0904,0.0943,0.1056,0.1127,0.1196,0.1214,0.123,0.1177,0.1382,0.1379,0.1334,0.1339,0.1342,0.1319,0,0,0,0,0]},{"header":{"parameterUnit":"m.s-1","parameterCategory":2,"la1":30.2991,"la2":30.254,"lo1":-89.0895,"lo2":-89.0444,"dy":0.0017,"dx":0.0017,"nx":28,"ny":28,"refTime":"2025-09-17T03:00:00:Z","depth":"4","parameterNumber":3,"parameterNumberName":"V-component_of_CURRENTS"},"data":[0,0,0,0,0,0,0,0,0,0,0,0,0,0,0,0,0,0,0,0,0,0,0,0,0,0,0,0,0,0,0,0,0,0,0,0,0,0,0,0,0,0,0,0,0,0,0,0,0,0,0,0,0,0,0,0,0,0,0.0163,0.0162,0,0.0117,0.0117,0.0116,0.009,0.009,0.009,0.009,0.0033,0.0032,0.003,0,0,0,0,0,0,0,0,0,0,0,0,0,0.0189,0.0188,0.0163,0.0162,0.0162,0.0118,0.0117,0.0116,0.009,0.009,0.009,0.009,0.0034,0.0032,0.003,0,0,0,0,0,0,0,0,0,0,0,0,0,0.0163,0.0188,0.0163,0.0144,0.0142,0.0118,0.0117,0.0116,0.009,0.009,0.009,0.009,0.0034,0.0032,0.003,0.0016,0,0,0.0023,0.0022,0,0,0,0,0,0,0,0,0.0164,0.0162,0.0147,0.0145,0.0143,0.011,0.0105,0.0082,0.009,0.0109,0.009,0.009,0.0059,0.0054,0.0044,0.0014,0.0011,0.0023,0.0021,0.002,0.002,0,0,0,0,0,0,0,0.0166,0.0163,0.0144,0.0147,0.0144,0.0125,0.0122,0.01,0.0083,0.0107,0.0105,0.0102,0.0057,0.0047,0.0043,0.001,0.0023,0.0021,0.0019,0.0019,-0.003,-0.003,0,0,0,0,0,0,0.0176,0.0165,0.0145,0.0143,0.0155,0.0125,0.0121,0.012,0.0084,0.0078,0.0102,0.0101,0.005,0.0046,0.0041,0.0043,0.002,0.0018,0.0017,-0.003,-0.003,-0.003,0,0,0,0,0,0,0.0177,0.0175,0.0147,0.0154,0.0149,0.0125,0.0124,0.0119,0.011,0.008,0.0074,0.0098,0.005,0.0044,0.0027,0.004,0.0017,0.0015,-0.003,-0.003,-0.003,0.0035,0,0,0,0,0,0,0.0178,0.0175,0.0178,0.0154,0.0149,0.0139,0.0124,0.0118,0.0108,0.0106,0.0075,0.0069,0.005,0.003,0.0024,0.0036,0.0013,-0.003,-0.003,-0.003,0.0032,0.0037,0.0041,0,0,0,0,0,0.0179,0.0183,0.0178,0.0176,0.0153,0.0139,0.0134,0.0116,0.0108,0.0107,0.0086,0.007,0.0027,0.0028,0.0022,0.0033,-0.003,-0.003,-0.003,0.0031,0.0036,0.0041,0,0,0,0,0,0,0.0193,0.018,0.0174,0.0174,0.0161,0.0135,0.0132,0.0119,0.0101,0.0099,0.007,0.0064,0.0053,0.003,0.0033,0.0018,-0.0004,-0.0006,0.0044,0.0049,0.0053,0.0062,0.0012,0,0,0,0,0,0.0199,0.0201,0.0183,0.0183,0.0179,0.0156,0.0148,0.0136,0.0117,0.0109,0.0088,0.0064,0.0047,0.0039,0.0016,0.0009,-0.0032,0.001,0.0015,0.0018,0.002,-0.0034,-0.0035,-0.003,-0.003,-0.003,0,0,0.0205,0.0198,0.0199,0.0186,0.0175,0.0181,0.0151,0.0143,0.015,0.0105,0.0107,0.0076,0.0046,0.0039,0.0033,0.0024,-0.0005,0.0019,0.0022,0.0022,-0.0034,-0.0035,-0.0035,-0.003,-0.003,-0.003,0,0,0.0226,0.0212,0.0226,0.022,0.0209,0.0196,0.0196,0.0175,0.0167,0.0158,0.0131,0.011,0.0082,0.0066,0.0054,0.0066,0.0016,0.0057,0.0091,0.0038,0.0037,0.0036,-0.0017,-0.0024,0.0063,0.0063,0.0063,0,0.0233,0.0251,0.0227,0.0241,0.0243,0.0209,0.0226,0.0214,0.019,0.0181,0.0168,0.0116,0.0097,0.0084,0.0094,0.0077,0.0033,0.0079,0.0044,0.0042,0.004,-0.0015,-0.0023,0.0066,0.0066,0.0065,0.0065,0,0.0271,0.0284,0.029,0.0302,0.0298,0.0304,0.0288,0.028,0.0261,0.0242,0.0215,0.0177,0.0143,0.0139,0.0125,0.0103,0.0072,0.0054,0.0035,0.0043,-0.0015,-0.0024,0.0071,0.007,0.0069,0.0068,0,0,0.029,0.0314,0.0318,0.0331,0.0331,0.0326,0.034,0.0331,0.0321,0.0294,0.0272,0.0254,0.0212,0.0195,0.0164,0.013,0.0085,0.0093,0.0089,0.0047,-0.0041,-0.004,-0.0051,0.0056,0.0055,0.0054,-0.0074,0,0.0328,0.037,0.0373,0.0406,0.0422,0.0401,0.041,0.0393,0.0362,0.0327,0.0284,0.0248,0.024,0.0211,0.018,0.0095,0.0062,0.0121,-0.0048,-0.0053,-0.0048,-0.006,0.005,-0.0082,-0.0084,-0.0086,-0.0087,0,0.0369,0.0389,0.0435,0.0449,0.0452,0.0466,0.045,0.0453,0.0404,0.0372,0.0328,0.0274,0.0224,0.0206,0.0087,0.0119,0.0054,-0.0006,-0.0013,-0.004,-0.0069,-0.0094,-0.0105,-0.0103,-0.0102,-0.0101,-0.01,0,0.0387,0.0429,0.0465,0.0473,0.0486,0.0496,0.0497,0.0465,0.045,0.039,0.0348,0.028,0.022,0.0137,0.0031,0.0047,-0.0118,-0.0118,-0.0177,-0.0179,-0.0169,-0.0167,-0.0197,-0.0197,-0.0197,-0.0196,-0.0196,0,0.0419,0.0443,0.0476,0.0491,0.0512,0.0516,0.0517,0.0499,0.0461,0.0432,0.0368,0.0314,0.0197,0.0092,0.0013,-0.0117,-0.0136,-0.0177,-0.0212,-0.0139,-0.0132,-0.0176,-0.0172,-0.0201,-0.02,-0.0199,-0.0198,0,0.0418,0.0453,0.0482,0.051,0.0521,0.0528,0.0533,0.052,0.0488,0.0441,0.042,0.0315,0.0184,0.0062,-0.0097,-0.015,-0.0268,-0.0304,-0.0227,-0.0255,-0.0289,-0.028,-0.0388,-0.0389,-0.039,-0.0391,-0.0392,0,0.0416,0.0437,0.0483,0.0496,0.0509,0.0527,0.0534,0.0531,0.0514,0.0444,0.0413,0.0285,0.0207,-0.0023,-0.0138,-0.031,-0.0315,-0.038,-0.0313,-0.0286,-0.0309,-0.0299,-0.0289,-0.0393,-0.0393,-0.0393,-0.0394,0,0.039,0.0414,0.0436,0.0474,0.0495,0.0515,0.0528,0.0523,0.0512,0.048,0.0397,0.0285,0.0131,-0.0022,-0.0165,-0.0276,-0.0342,-0.0389,-0.0387,-0.0325,-0.0293,-0.0313,-0.0302,-0.0397,-0.0396,-0.0396,-0.0396,0,0.0357,0.0366,0.0407,0.0437,0.0471,0.0497,0.0509,0.05,0.0493,0.0438,0.0411,0.0264,0.0179,-0.0006,-0.0134,-0.0253,-0.0264,-0.028,-0.0284,-0.0282,-0.02,-0.0141,-0.0233,0,0,0,0,0,0.0324,0.0343,0.0364,0.0408,0.0445,0.0469,0.05,0.0509,0.0511,0.046,0.0442,0.0312,0.0118,0.0027,-0.0092,-0.015,-0.0291,-0.0291,-0.0313,-0.0414,-0.041,-0.0329,0,0,0,0,0,0,0.03,0.0327,0.0354,0.0388,0.0409,0.0449,0.0474,0.0475,0.0451,0.0437,0.0334,0.0288,0.0095,0.0181,-0.0096,-0.0134,-0.016,-0.0383,-0.0386,-0.0416,-0.0412,-0.041,-0.0325,0,0,0,0,0]}]]